Theta_e
319 320 312 323 323 325 322 321 322 330 332 331 332 337 339 337 335 337 331 329 327 327 326 324 323 323 321 319 319 318 318 318 318 317 317 317 318 317 317 316 315 315 316 316 316 315 315 314 313
321 319 317 325 322 321 321 322 324 327 326 329 334 331 336 339 336 332 330 328 327 327 326 325 324 324 323 320 320 319 319 319 319 318 318 318 319 319 319 318 317 316 317 318 319 320 320 320 320
322 313 322 326 321 321 321 323 323 329 330 331 335 332 333 335 337 331 329 328 328 327 326 326 325 325 324 322 321 321 319 319 319 318 318 319 320 320 320 320 319 317 317 319 320 321 322 323 323
319 316 322 325 324 322 322 327 330 329 329 331 334 335 332 334 335 330 328 328 328 327 326 326 325 325 324 323 322 321 320 319 319 318 319 319 320 321 321 321 321 319 318 319 320 321 321 322 323
315 322 321 324 322 324 326 324 325 328 329 332 334 334 332 334 334 329 328 328 327 327 326 326 325 325 324 324 323 321 320 319 319 319 319 319 320 321 321 322 322 322 321 319 320 322 322 321 322
319 324 323 319 321 322 324 325 326 327 328 330 334 332 333 335 330 329 328 328 328 327 327 327 326 325 324 324 323 322 320 320 318 318 318 319 320 320 321 322 322 322 322 321 321 321 322 323 322
322 325 321 323 322 321 322 323 324 326 329 331 332 333 332 334 332 330 329 330 329 328 329 328 327 326 325 324 323 322 320 319 318 318 318 319 319 320 321 321 322 322 322 322 322 322 322 324 325
319 325 322 322 321 322 325 325 326 328 329 329 330 333 333 334 334 333 330 331 332 332 331 330 329 327 326 325 323 322 322 320 318 318 318 318 319 320 320 321 321 321 321 322 323 322 323 325 326
323 322 322 321 323 321 324 325 326 326 326 327 329 330 328 330 333 333 334 332 333 333 332 332 332 330 329 327 326 323 322 321 319 317 317 317 318 319 320 320 321 321 321 321 323 324 325 327 327
327 326 324 321 322 323 323 326 326 326 327 328 328 329 329 328 329 332 332 332 332 332 332 332 332 332 332 330 328 325 323 322 321 318 317 317 317 318 319 320 320 320 320 321 323 326 327 329 330
327 329 325 323 322 323 323 324 325 326 327 328 328 328 329 328 329 330 330 330 331 332 332 332 332 332 333 333 332 331 327 324 323 321 319 317 317 317 318 319 319 320 320 321 323 327 329 333 332
324 326 327 326 324 324 324 324 325 326 326 327 328 328 329 328 327 327 329 327 327 328 331 332 330 329 331 333 333 333 331 331 328 324 321 319 317 317 317 318 318 319 320 321 322 327 331 330 331
323 323 325 326 327 326 326 327 327 328 327 328 329 328 327 326 326 325 327 327 326 328 330 328 327 327 328 328 329 331 330 332 332 330 326 322 320 318 317 318 318 318 319 320 322 325 332 331 331
322 323 322 323 328 329 329 329 329 329 328 327 327 327 327 326 325 325 326 327 326 327 327 326 326 326 326 327 327 327 328 329 331 332 332 329 323 321 319 318 318 318 318 319 321 322 332 333 331
318 320 320 325 324 326 325 328 328 326 325 325 326 326 326 326 325 325 326 326 326 326 326 326 325 325 325 326 327 327 327 327 328 330 331 332 331 328 325 320 318 318 318 319 320 320 333 334 333
316 317 320 321 319 322 323 327 327 326 325 325 325 326 325 325 325 325 325 326 325 325 325 325 325 325 325 326 327 327 327 327 328 329 330 331 333 331 331 330 323 319 318 319 319 321 333 335 333
316 319 319 320 320 320 321 325 325 324 323 325 325 325 325 325 325 325 325 325 324 324 325 325 324 325 326 326 326 327 327 328 328 328 329 330 333 334 335 334 329 322 320 321 322 325 332 331 331
316 317 318 320 320 320 321 323 324 323 323 324 324 324 324 324 324 324 324 324 324 324 324 324 324 324 326 326 326 328 328 328 328 329 330 331 333 335 337 335 331 327 325 329 325 333 331 331 331
315 316 317 318 319 320 321 323 323 322 322 322 323 323 324 323 323 323 323 322 323 323 324 324 324 323 323 327 328 328 328 328 328 329 330 332 335 338 337 333 332 335 333 335 335 332 332 329 328
314 315 317 317 317 319 321 322 322 320 321 322 323 323 323 323 322 322 322 322 323 323 323 323 324 322 323 324 327 327 328 327 328 330 333 335 338 338 338 338 338 334 334 335 334 333 332 330 329
313 314 315 317 316 317 317 320 320 320 319 319 319 319 319 319 320 319 320 321 322 322 323 322 321 321 322 325 327 327 327 328 329 332 334 338 339 339 340 340 336 334 333 332 332 332 329 329 328
313 313 314 314 316 319 317 320 321 321 320 320 319 318 319 318 317 318 319 319 319 321 321 319 320 321 322 325 326 326 328 329 331 334 338 340 341 341 341 338 335 334 332 332 332 331 330 329 329
311 312 314 314 315 316 316 316 318 318 318 318 320 318 317 317 317 317 316 316 316 317 318 320 320 322 323 327 328 329 332 334 336 339 340 340 340 338 336 334 332 332 332 333 331 329 329 329 328
311 310 311 312 313 315 316 316 317 318 318 318 318 316 316 316 316 316 315 316 316 317 319 321 321 325 328 330 331 334 335 336 339 340 340 338 337 335 333 332 332 332 333 333 329 328 328 326 326
308 311 312 313 313 314 314 315 316 317 316 315 317 316 316 317 317 316 317 317 318 317 318 320 324 329 332 334 336 337 338 339 340 339 339 337 333 332 332 332 333 333 332 329 328 326 324 325 324
308 310 311 311 313 313 312 314 315 316 316 316 315 316 316 317 318 319 320 321 319 318 320 323 328 333 336 338 339 340 341 340 339 338 332 331 332 332 332 331 331 330 328 327 325 325 325 325 326
307 308 309 309 311 312 313 313 314 314 315 316 316 317 318 319 321 326 325 323 322 320 321 327 333 337 338 339 340 340 339 337 333 332 332 332 332 331 330 329 329 327 326 324 324 324 325 325 325
309 309 308 309 310 310 313 313 314 317 317 316 316 316 317 323 328 332 329 323 321 321 326 334 337 338 338 339 338 335 334 333 332 331 331 331 330 329 328 327 326 324 324 323 323 323 323 323 324
309 309 309 310 310 312 313 314 316 317 317 316 316 315 316 321 329 333 332 327 326 329 333 338 339 338 338 336 334 334 334 333 332 332 331 329 328 328 327 325 324 323 323 324 325 325 326 326 326
310 309 310 311 310 310 311 312 316 314 314 315 315 315 315 319 328 333 334 338 334 337 338 339 339 337 335 334 333 333 332 331 331 329 327 328 328 325 324 325 323 324 325 326 325 325 325 324 326
Wind_Speed
9 6 6 5 4 2 5 5 6 6 3 4 6 5 14 7 12 3 14 19 17 21 23 22 19 14 13 13 12 12 13 13 13 13 12 10 8 7 6 6 6 5 3 2 2 2 3 4 4
7 7 8 2 4 6 7 7 10 7 9 13 5 6 8 7 14 2 17 21 20 19 21 20 19 15 13 14 13 12 13 14 14 14 13 11 8 7 6 5 5 4 3 2 1 2 3 3 3
9 11 5 3 4 11 5 7 11 4 12 12 3 5 4 3 17 8 20 23 21 20 17 16 17 15 15 14 14 14 14 15 16 15 14 12 10 9 7 5 4 4 4 3 2 2 2 3 2
9 6 1 5 13 9 9 1 2 11 3 9 6 3 4 6 11 15 22 22 20 19 17 15 15 15 16 15 16 16 16 17 18 17 16 15 13 11 9 7 5 3 2 2 2 1 2 3 2
12 3 4 6 16 9 12 16 15 12 12 7 7 4 3 11 14 21 23 22 19 17 16 14 16 16 16 17 19 18 19 20 19 19 18 17 14 13 11 9 6 4 2 2 1 1 3 4 4
5 2 5 16 16 12 11 12 12 14 13 11 5 3 4 9 20 23 22 19 16 16 16 16 18 18 18 21 21 21 22 22 22 21 21 19 17 15 13 11 8 6 3 2 1 2 3 4 5
4 3 11 10 9 16 17 13 16 15 10 5 3 3 4 17 18 20 19 17 17 18 16 17 18 19 22 24 25 24 24 25 24 24 24 22 21 19 16 14 12 9 6 4 3 3 3 4 6
8 4 7 8 12 12 3 3 3 6 4 4 2 3 2 11 14 17 17 21 19 17 17 19 20 22 24 25 27 27 28 27 27 28 28 26 24 22 20 18 16 13 9 7 6 5 5 4 5
10 8 13 17 11 7 4 8 2 4 7 7 3 7 9 10 11 14 16 18 19 18 17 17 20 24 25 27 29 30 32 31 31 31 31 30 29 28 24 21 18 15 12 10 8 8 8 7 7
12 11 20 7 14 7 13 4 6 5 8 8 5 9 3 7 4 6 9 13 18 19 19 19 21 24 28 31 32 33 35 35 36 36 36 35 34 31 28 24 21 18 15 12 11 11 10 10 8
12 19 20 18 22 19 22 21 12 11 14 15 6 7 13 15 6 6 10 15 17 21 24 20 21 26 30 32 35 36 38 40 40 39 40 39 39 34 31 29 26 22 19 17 15 14 14 12 11
15 24 27 18 16 13 20 25 17 19 29 14 19 20 22 20 20 17 15 13 14 18 21 21 23 29 31 35 38 38 41 41 42 42 43 43 43 39 36 34 30 27 24 21 18 17 16 14 14
24 22 16 26 17 23 19 23 19 22 29 22 25 27 25 24 21 18 17 18 18 16 15 14 18 21 22 26 34 37 40 45 43 43 45 46 45 42 39 38 34 31 27 24 22 19 18 17 16
18 24 29 20 18 26 22 29 22 19 21 20 21 27 29 28 30 25 21 21 19 14 15 18 24 27 25 25 23 28 35 42 42 43 45 46 43 43 42 40 37 33 29 26 24 20 19 19 18
29 17 10 23 29 16 10 27 30 28 26 31 25 28 30 27 28 26 24 22 19 18 19 25 26 28 31 30 28 28 29 33 32 39 41 41 39 38 38 38 38 35 30 27 24 22 21 21 20
15 20 20 24 13 13 18 31 27 18 21 28 31 30 23 24 22 18 18 19 21 20 27 27 28 28 27 26 24 27 27 27 30 34 35 35 33 29 27 29 34 34 31 27 25 23 22 22 21
18 19 28 27 22 13 19 34 24 26 23 26 25 26 24 22 31 32 30 27 23 29 32 31 27 28 25 22 25 26 25 25 30 31 30 28 27 23 21 22 25 27 28 26 26 21 19 20 19
26 27 27 24 17 20 19 33 19 16 15 19 22 23 24 27 35 37 36 34 37 36 33 32 24 23 22 23 23 22 24 25 29 29 26 23 19 18 16 18 19 19 24 22 22 19 17 16 17
16 20 21 19 14 15 25 31 26 23 27 28 29 30 32 34 35 42 45 42 37 32 31 28 24 26 22 22 20 21 23 26 28 26 20 16 16 14 13 13 13 12 15 15 16 15 14 15 16
22 14 14 9 6 11 19 25 22 13 18 26 28 32 31 34 36 39 35 29 28 27 24 23 24 26 24 22 19 19 21 24 25 18 15 14 14 12 13 14 9 5 12 15 16 15 15 17 18
23 22 10 5 3 9 9 20 21 17 22 27 28 31 30 33 30 37 37 34 33 31 26 25 25 26 24 22 18 20 21 21 18 16 15 14 13 13 13 13 13 10 12 14 15 15 16 18 16
19 17 18 14 6 9 6 14 17 17 18 17 24 28 32 28 29 43 46 46 44 37 32 31 26 25 24 20 19 22 20 16 14 11 12 14 13 13 13 12 12 12 12 14 13 15 16 16 15
14 10 15 17 16 12 18 9 18 15 21 23 22 29 30 33 34 40 41 41 39 35 28 25 23 23 22 17 17 16 15 12 11 14 15 15 15 15 14 14 12 11 12 13 14 15 14 13 13
18 11 5 5 7 13 17 11 18 19 21 19 18 24 23 20 22 25 26 27 29 23 21 17 18 18 15 14 14 13 13 14 15 17 17 17 16 14 14 15 13 13 12 14 14 12 11 10 11
9 18 8 10 10 16 9 12 19 7 4 7 3 7 17 17 14 18 17 17 17 20 22 20 15 13 13 14 14 14 12 11 13 15 16 17 16 14 12 12 13 13 14 14 11 10 10 10 11
13 14 10 15 11 13 11 13 8 14 16 16 10 7 12 16 15 18 20 14 13 16 17 15 13 16 17 16 16 14 13 14 14 14 16 14 12 11 11 11 12 13 12 10 9 9 9 10 11
7 9 7 2 1 7 10 16 16 17 17 16 4 9 17 22 22 23 21 14 13 15 15 14 16 19 19 18 17 16 15 15 17 16 14 12 12 10 10 11 12 11 9 8 7 8 9 9 10
6 9 9 6 6 8 8 15 9 7 6 2 2 14 21 26 25 25 17 9 12 15 14 17 19 20 20 19 17 17 19 17 15 13 13 12 9 9 10 11 11 9 8 7 6 5 5 7 7
5 5 7 7 8 4 3 3 4 8 9 8 9 16 21 26 27 23 14 1 10 15 19 24 24 23 22 20 20 20 19 17 14 13 12 9 8 8 10 11 10 10 9 8 6 4 4 5 6
7 3 4 9 19 11 7 5 5 11 9 10 14 22 27 25 24 18 10 1 10 18 24 26 25 24 22 23 21 18 17 15 13 11 9 8 9 11 11 10 11 11 9 7 4 4 4 3 3
Wind_Direction
204 194 165 159 219 234 232 232 251 254 231 170 164 175 191 176 167 216 164 170 171 184 191 190 187 179 179 182 181 175 171 170 176 175 173 167 160 154 154 154 155 154 158 167 203 229 251 265 258
194 181 160 194 234 215 231 227 233 242 266 302 231 212 188 216 198 243 160 163 171 178 191 191 184 182 187 192 193 191 191 187 185 184 184 178 171 162 154 150 148 143 146 145 166 235 233 247 262
185 176 172 215 217 226 247 215 238 292 290 261 264 190 197 207 201 187 167 165 169 174 180 187 188 187 195 203 207 207 205 203 200 195 194 192 186 178 167 162 151 150 165 158 161 233 241 226 227
178 172 105 227 231 233 235 312 112 318 297 211 217 245 228 200 198 180 167 166 170 172 179 193 198 199 203 212 218 219 215 216 212 207 206 204 197 191 184 181 166 168 163 161 183 226 271 270 259
179 186 217 237 239 242 255 273 284 296 302 284 183 222 208 197 180 172 173 175 175 177 181 192 206 209 212 222 227 225 225 222 223 219 217 216 210 204 199 199 192 195 204 195 165 240 268 281 277
184 195 221 231 231 241 257 268 278 274 282 274 241 211 171 177 163 172 181 184 181 187 187 200 212 218 224 230 234 233 229 229 229 229 225 224 221 216 216 215 218 222 229 225 222 269 284 286 286
203 200 232 242 252 251 252 257 255 263 272 234 247 200 175 173 165 180 185 187 197 194 200 215 219 225 231 235 236 238 237 235 234 234 233 232 229 226 226 224 226 230 244 263 269 277 271 277 291
214 213 230 231 236 251 217 224 288 213 255 314 205 225 69 180 179 189 191 203 207 206 212 223 232 235 240 241 242 242 242 241 240 239 239 237 235 233 229 229 230 237 246 260 264 273 266 256 272
200 228 237 230 213 228 238 229 190 288 278 285 189 77 58 58 201 196 207 210 217 220 226 235 241 246 251 249 249 248 246 245 244 243 243 241 236 234 233 234 238 240 243 252 262 264 265 268 274
204 228 234 223 224 221 246 253 305 303 291 279 268 185 47 51 71 242 244 242 236 242 240 247 256 260 256 255 253 251 251 249 246 243 243 241 240 238 239 240 239 241 242 249 256 256 255 256 265
216 231 232 231 225 223 247 260 242 268 271 257 270 305 313 313 287 272 261 265 266 263 253 257 274 273 266 265 261 258 255 253 252 249 248 245 243 241 238 237 236 237 242 244 251 251 250 247 253
238 232 237 245 237 230 240 252 253 248 252 259 285 291 292 285 282 279 273 268 278 277 254 257 278 284 278 271 266 264 260 261 258 256 252 249 246 243 241 240 239 241 243 244 247 250 249 250 254
232 237 242 239 247 240 255 251 253 248 261 263 273 279 275 277 280 274 266 266 284 265 243 269 296 301 291 281 275 268 269 265 262 259 259 254 250 248 245 245 242 243 244 246 247 252 254 254 257
234 236 243 242 234 246 255 260 252 255 255 260 266 270 272 274 278 283 276 269 274 253 265 292 298 301 294 281 279 282 271 270 265 263 261 261 257 254 252 248 244 244 247 248 249 253 254 257 256
242 249 238 232 231 241 238 272 243 246 256 261 261 269 272 270 277 280 280 272 266 266 285 297 298 290 287 277 279 278 276 275 265 260 262 264 263 261 259 252 247 247 248 246 247 256 253 252 253
227 234 242 229 205 226 203 256 263 240 245 257 268 268 263 270 274 277 272 275 280 288 296 296 300 300 289 277 277 273 270 269 254 256 261 264 265 264 263 256 248 244 244 245 247 252 251 255 256
228 229 226 237 212 202 196 251 252 262 251 253 248 255 264 274 280 276 275 279 284 294 297 293 300 300 286 280 275 271 265 250 249 255 259 265 267 269 263 252 245 237 241 243 245 243 250 259 263
216 226 233 224 214 211 217 249 244 259 264 263 272 278 281 278 275 278 281 282 292 293 287 285 296 305 293 272 270 265 257 245 247 254 258 261 264 260 248 238 237 232 229 234 227 232 250 263 262
261 247 242 247 229 213 223 242 246 240 254 258 262 268 270 272 277 279 280 285 287 281 275 274 285 299 300 287 267 262 246 240 248 255 256 257 254 238 222 217 221 228 223 216 223 238 253 257 262
241 251 249 231 225 227 238 248 249 243 250 254 258 263 269 275 278 282 282 282 278 277 277 276 285 294 295 288 268 253 247 249 255 252 243 239 229 208 204 205 196 222 224 218 229 239 258 262 264
229 232 216 221 235 250 274 261 251 246 250 255 257 261 266 265 272 279 278 276 278 279 279 284 286 288 291 280 257 240 241 245 243 232 232 217 199 196 198 203 202 209 214 224 235 243 262 265 267
234 224 228 239 260 232 200 267 245 243 252 250 257 258 261 269 267 272 274 275 275 275 281 286 277 278 282 269 248 240 244 242 238 223 209 191 189 191 195 195 203 209 223 234 237 262 264 259 259
247 204 206 214 230 250 241 269 261 252 258 257 257 265 271 268 266 267 270 272 274 275 273 269 273 272 274 248 233 227 220 209 201 189 178 179 183 185 193 196 204 220 242 240 260 264 257 252 248
213 228 250 232 224 234 234 236 268 254 257 260 261 266 270 282 276 269 274 273 267 259 256 262 272 267 238 217 207 203 201 196 188 176 174 176 180 183 188 200 218 236 241 253 262 253 249 242 231
181 187 197 219 216 236 204 217 243 244 287 236 257 307 295 303 287 288 297 283 268 248 245 253 249 230 201 189 188 184 186 180 178 176 177 177 177 182 194 214 227 237 248 254 248 237 228 221 213
198 200 205 217 209 229 203 227 244 237 267 274 285 302 312 325 321 312 311 291 270 239 232 229 215 194 184 177 177 172 170 169 173 172 166 168 173 187 198 215 231 241 239 228 227 225 226 220 219
169 204 225 265 71 217 194 249 279 262 274 271 263 7 352 343 342 334 317 283 252 226 219 201 188 179 174 173 172 169 171 169 163 162 167 175 184 197 214 231 228 217 206 212 214 217 225 225 225
229 186 195 207 200 212 213 243 235 117 80 318 138 11 355 353 349 345 332 272 216 204 192 175 174 172 169 166 168 165 160 161 166 171 177 179 196 215 222 212 195 189 194 185 174 173 182 195 210
195 217 222 243 235 240 239 209 229 236 101 58 31 5 355 355 354 347 342 258 170 172 169 166 168 169 163 163 162 164 164 166 171 175 183 194 203 207 194 185 179 176 167 164 166 177 187 199 216
284 287 280 230 218 237 281 277 111 112 79 22 356 351 354 355 351 350 340 125 156 157 162 164 165 165 161 156 157 162 164 167 174 180 186 195 196 178 173 171 174 168 166 169 175 195 200 192 214